UAL900 EGLL-KSFO

Flight info

Callsign UAL900
Flight time N/A
Altitude 34000
Route CPT DCT DIDZA N14 OKSAW DCT BIBPE DCT OKTAD DCT MEDOG DCT VATRY DCT PIKIL/M083F340 DCT 57N020W 5830N03000W 5930N04000W 60N050W/M082F360 DCT PIDSO DCT MIBNO/N0477F360 DCT JELCO DCT DUGNO/N0485F380 DCT 59N090W 57N100W DCT MEETO Q896 YQL J540 MLP/N0465F400 DCT LKV J3 RBL/N0462F390 DCT MRRLO BDEGA4
Aircraft B772/H-SDE2E3FGHIJ5LORVWXY/LB1D1

Departure

Time 2026-05-08 00:31
Airport London Heathrow Airport (EGLL)

Arrival

Time N/A
Airport San Francisco International Airport (KSFO)
Time Latitude Longitude Altitude Speed Heading
2026-05-07 23:40 51.47339 -0.44421 99 ft 0 kts 90°
2026-05-08 00:16 51.47339 -0.44427 98 ft 2 kts 90°
2026-05-08 00:16 51.47339 -0.44443 99 ft 2 kts 90°
2026-05-08 00:16 51.47339 -0.44468 99 ft 2 kts 90°
2026-05-08 00:16 51.47340 -0.44491 100 ft 1 kts 99°
2026-05-08 00:17 51.47344 -0.44513 100 ft 2 kts 118°
2026-05-08 00:17 51.47352 -0.44532 100 ft 2 kts 133°
2026-05-08 00:17 51.47363 -0.44547 99 ft 2 kts 149°
2026-05-08 00:17 51.47376 -0.44557 99 ft 2 kts 165°
2026-05-08 00:18 51.47389 -0.44561 99 ft 0 kts 179°
2026-05-08 00:18 51.47392 -0.44561 99 ft 0 kts 181°
2026-05-08 00:22 51.47385 -0.44561 99 ft 2 kts 181°
2026-05-08 00:22 51.47363 -0.44561 99 ft 4 kts 180°
2026-05-08 00:22 51.47326 -0.44560 100 ft 6 kts 180°
2026-05-08 00:22 51.47266 -0.44559 100 ft 10 kts 179°
2026-05-08 00:23 51.47185 -0.44556 101 ft 13 kts 179°
2026-05-08 00:23 51.47089 -0.44557 103 ft 15 kts 181°
2026-05-08 00:23 51.46974 -0.44556 103 ft 18 kts 180°
2026-05-08 00:23 51.46845 -0.44555 100 ft 14 kts 180°
2026-05-08 00:24 51.46762 -0.44584 97 ft 12 kts 237°
2026-05-08 00:24 51.46752 -0.44708 99 ft 10 kts 269°
2026-05-08 00:24 51.46751 -0.44816 100 ft 9 kts 270°
2026-05-08 00:24 51.46751 -0.44934 100 ft 11 kts 270°
2026-05-08 00:25 51.46751 -0.45076 102 ft 14 kts 270°
2026-05-08 00:25 51.46751 -0.45252 100 ft 18 kts 270°
2026-05-08 00:25 51.46749 -0.45495 95 ft 24 kts 271°
2026-05-08 00:25 51.46748 -0.45765 92 ft 24 kts 270°
2026-05-08 00:26 51.46747 -0.46038 90 ft 24 kts 270°
2026-05-08 00:26 51.46746 -0.46304 87 ft 24 kts 270°
2026-05-08 00:26 51.46748 -0.46575 85 ft 24 kts 269°
2026-05-08 00:26 51.46747 -0.46845 83 ft 23 kts 271°
2026-05-08 00:27 51.46746 -0.47096 85 ft 21 kts 270°
2026-05-08 00:27 51.46745 -0.47329 85 ft 20 kts 270°
2026-05-08 00:27 51.46745 -0.47542 86 ft 18 kts 270°
2026-05-08 00:27 51.46745 -0.47746 86 ft 17 kts 270°
2026-05-08 00:28 51.46743 -0.47943 86 ft 17 kts 270°
2026-05-08 00:28 51.46743 -0.48135 86 ft 17 kts 270°
2026-05-08 00:28 51.46742 -0.48330 84 ft 17 kts 270°
2026-05-08 00:28 51.46699 -0.48461 83 ft 13 kts 196°
2026-05-08 00:29 51.46605 -0.48468 83 ft 13 kts 180°
2026-05-08 00:29 51.46512 -0.48461 83 ft 12 kts 155°
2026-05-08 00:29 51.46480 -0.48339 83 ft 12 kts 91°
2026-05-08 00:29 51.46479 -0.48178 83 ft 19 kts 91°
2026-05-08 00:30 51.46480 -0.47704 86 ft 69 kts 90°
2026-05-08 00:30 51.46484 -0.46655 84 ft 119 kts 90°
2026-05-08 00:30 51.46485 -0.45075 95 ft 159 kts 91°
2026-05-08 00:30 51.46485 -0.43237 355 ft 166 kts 89°
2026-05-08 00:31 51.46500 -0.41355 724 ft 171 kts 102°
2026-05-08 00:31 51.46057 -0.39615 1226 ft 170 kts 126°
2026-05-08 00:31 51.45190 -0.38263 1419 ft 183 kts 149°
2026-05-08 00:31 51.43926 -0.37591 1563 ft 200 kts 176°
2026-05-08 00:32 51.42492 -0.38014 1770 ft 219 kts 205°
2026-05-08 00:32 51.41285 -0.39690 1937 ft 240 kts 232°
2026-05-08 00:32 51.40347 -0.41975 2295 ft 251 kts 244°
2026-05-08 00:32 51.40040 -0.44741 2713 ft 260 kts 273°
2026-05-08 00:33 51.40326 -0.47644 3236 ft 264 kts 280°
2026-05-08 00:33 51.40700 -0.50531 3814 ft 264 kts 281°
2026-05-08 00:33 51.41071 -0.53460 4331 ft 267 kts 281°
2026-05-08 00:33 51.41433 -0.56377 4850 ft 269 kts 281°
2026-05-08 00:34 51.41795 -0.59324 5389 ft 271 kts 281°
2026-05-08 00:34 51.42159 -0.62298 5881 ft 273 kts 281°
2026-05-08 00:34 51.42524 -0.65280 6046 ft 275 kts 281°
2026-05-08 00:34 51.42901 -0.68373 6054 ft 274 kts 281°
2026-05-08 00:35 51.43269 -0.71397 6046 ft 274 kts 280°
2026-05-08 00:35 51.43630 -0.74372 6069 ft 274 kts 281°
2026-05-08 00:35 51.44002 -0.77425 6057 ft 274 kts 281°
2026-05-08 00:35 51.44367 -0.80404 6058 ft 274 kts 281°
2026-05-08 00:36 51.44732 -0.83393 6052 ft 273 kts 281°
2026-05-08 00:36 51.45095 -0.86372 6059 ft 273 kts 281°
2026-05-08 00:36 51.45453 -0.89349 6060 ft 272 kts 280°
2026-05-08 00:36 51.45795 -0.92338 6058 ft 273 kts 280°
2026-05-08 00:37 51.46137 -0.95340 6065 ft 272 kts 280°
2026-05-08 00:37 51.46476 -0.98309 6079 ft 275 kts 280°
2026-05-08 00:37 51.46819 -1.01315 6547 ft 276 kts 280°
2026-05-08 00:38 51.47506 -1.07350 7655 ft 275 kts 280°
2026-05-08 00:38 51.47835 -1.10237 8156 ft 275 kts 281°
2026-05-08 00:38 51.48338 -1.13157 8640 ft 277 kts 287°
2026-05-08 00:38 51.48935 -1.16088 9108 ft 277 kts 287°
2026-05-08 00:39 51.49535 -1.19019 9598 ft 277 kts 287°
2026-05-08 00:39 51.50142 -1.21983 10052 ft 279 kts 287°
2026-05-08 00:39 51.50751 -1.24967 10290 ft 289 kts 287°
2026-05-08 00:39 51.51385 -1.28082 10367 ft 305 kts 287°
2026-05-08 00:40 51.52065 -1.31424 10421 ft 321 kts 287°
2026-05-08 00:40 51.52767 -1.34878 10486 ft 335 kts 287°
2026-05-08 00:40 51.53501 -1.38497 10553 ft 350 kts 287°
2026-05-08 00:40 51.54259 -1.42246 10735 ft 359 kts 287°
2026-05-08 00:41 51.55036 -1.46083 11130 ft 363 kts 287°
2026-05-08 00:41 51.55817 -1.49955 11541 ft 366 kts 287°
2026-05-08 00:41 51.56601 -1.53845 11953 ft 369 kts 287°
2026-05-08 00:41 51.57383 -1.57737 12345 ft 372 kts 287°
2026-05-08 00:42 51.58184 -1.61728 12741 ft 375 kts 287°
2026-05-08 00:42 51.58984 -1.65721 13137 ft 377 kts 286°
2026-05-08 00:42 51.59786 -1.69735 13558 ft 379 kts 286°
2026-05-08 00:42 51.60598 -1.73806 13956 ft 382 kts 286°
2026-05-08 00:43 51.61406 -1.77868 14357 ft 384 kts 286°
2026-05-08 00:43 51.62216 -1.81945 14760 ft 387 kts 286°
2026-05-08 00:43 51.63039 -1.86100 15149 ft 389 kts 286°
2026-05-08 00:43 51.63852 -1.90211 15524 ft 392 kts 285°
2026-05-08 00:44 51.64674 -1.94377 15911 ft 394 kts 285°
2026-05-08 00:44 51.65503 -1.98587 16277 ft 397 kts 285°
2026-05-08 00:44 51.66338 -2.02835 16646 ft 399 kts 285°
2026-05-08 00:44 51.67175 -2.07105 17020 ft 401 kts 285°
2026-05-08 00:45 51.68014 -2.11394 17381 ft 403 kts 285°
2026-05-08 00:45 51.68860 -2.15728 17793 ft 406 kts 285°
2026-05-08 00:45 51.69704 -2.20067 18133 ft 408 kts 285°
2026-05-08 00:45 51.70551 -2.24423 18469 ft 410 kts 285°
2026-05-08 00:46 51.71393 -2.28766 18816 ft 412 kts 285°
2026-05-08 00:46 51.72253 -2.33209 19150 ft 414 kts 285°
2026-05-08 00:46 51.73103 -2.37615 19473 ft 416 kts 285°
2026-05-08 00:46 51.73966 -2.42098 19790 ft 419 kts 285°
2026-05-08 00:47 51.74822 -2.46556 20112 ft 420 kts 285°
2026-05-08 00:47 51.75689 -2.51078 20433 ft 422 kts 285°
2026-05-08 00:47 51.76558 -2.55624 20735 ft 424 kts 285°
2026-05-08 00:47 51.77419 -2.60136 21019 ft 426 kts 285°
2026-05-08 00:48 51.78282 -2.64673 21311 ft 427 kts 285°
2026-05-08 00:48 51.79156 -2.69277 21607 ft 429 kts 284°
2026-05-08 00:48 51.80031 -2.73899 21908 ft 430 kts 285°
2026-05-08 00:48 51.80899 -2.78496 22200 ft 432 kts 285°
2026-05-08 00:49 51.81774 -2.83138 22488 ft 433 kts 285°
2026-05-08 00:49 51.82647 -2.87778 22770 ft 435 kts 285°
2026-05-08 00:49 51.83523 -2.92453 23020 ft 437 kts 285°
2026-05-08 00:49 51.84396 -2.97117 23266 ft 439 kts 284°
2026-05-08 00:50 51.85276 -3.01834 23515 ft 440 kts 284°
2026-05-08 00:50 51.86156 -3.06567 23762 ft 442 kts 284°
2026-05-08 00:50 51.87042 -3.11333 24014 ft 444 kts 285°
2026-05-08 00:50 51.87926 -3.16110 24269 ft 445 kts 284°
2026-05-08 00:51 51.88811 -3.20899 24513 ft 446 kts 285°
2026-05-08 00:51 51.89691 -3.25674 24745 ft 448 kts 285°
2026-05-08 00:51 51.90584 -3.30534 24983 ft 449 kts 284°
2026-05-08 00:51 51.91468 -3.35356 25214 ft 451 kts 284°
2026-05-08 00:52 51.92359 -3.40226 25463 ft 451 kts 284°
2026-05-08 00:52 51.93244 -3.45080 25702 ft 452 kts 284°
2026-05-08 00:52 51.94128 -3.49934 25912 ft 454 kts 285°
2026-05-08 00:52 51.95094 -3.54835 26114 ft 456 kts 290°
2026-05-08 00:53 51.96417 -3.59480 26341 ft 459 kts 296°
2026-05-08 00:53 51.97901 -3.64063 26561 ft 460 kts 296°
2026-05-08 00:53 51.99392 -3.68655 26739 ft 461 kts 295°
2026-05-08 00:53 52.00872 -3.73232 26921 ft 463 kts 295°
2026-05-08 00:54 52.02359 -3.77854 27098 ft 464 kts 295°
2026-05-08 00:54 52.03856 -3.82525 27286 ft 465 kts 295°
2026-05-08 00:54 52.05333 -3.87148 27479 ft 466 kts 295°
2026-05-08 00:54 52.06816 -3.91801 27670 ft 467 kts 295°
2026-05-08 00:55 52.08300 -3.96475 27836 ft 468 kts 295°
2026-05-08 00:55 52.09800 -4.01206 28011 ft 469 kts 295°
2026-05-08 00:55 52.11295 -4.05933 28188 ft 470 kts 295°
2026-05-08 00:55 52.12778 -4.10633 28322 ft 471 kts 295°
2026-05-08 00:56 52.14272 -4.15378 28455 ft 472 kts 295°
2026-05-08 00:56 52.15756 -4.20101 28597 ft 473 kts 295°
2026-05-08 00:56 52.17257 -4.24890 28767 ft 474 kts 295°
2026-05-08 00:56 52.18736 -4.29615 28943 ft 474 kts 295°
2026-05-08 00:57 52.20233 -4.34407 29105 ft 474 kts 295°
2026-05-08 00:57 52.21709 -4.39143 29311 ft 473 kts 295°
2026-05-08 00:57 52.23186 -4.43892 29512 ft 472 kts 295°
2026-05-08 00:57 52.24678 -4.48699 29720 ft 471 kts 295°
2026-05-08 00:58 52.26147 -4.53439 29927 ft 470 kts 295°
2026-05-08 00:58 52.27600 -4.58136 30112 ft 469 kts 295°
2026-05-08 00:58 52.29068 -4.62895 30306 ft 468 kts 295°
2026-05-08 00:58 52.30526 -4.67626 30491 ft 467 kts 295°
2026-05-08 00:59 52.31984 -4.72371 30690 ft 466 kts 295°
2026-05-08 00:59 52.33423 -4.77062 30917 ft 464 kts 295°
2026-05-08 00:59 52.34862 -4.81761 31123 ft 462 kts 295°
2026-05-08 00:59 52.36274 -4.86379 31301 ft 461 kts 295°
2026-05-08 01:00 52.37705 -4.91071 31462 ft 461 kts 295°
2026-05-08 01:00 52.39138 -4.95780 31606 ft 460 kts 295°
2026-05-08 01:00 52.40550 -5.00424 31753 ft 460 kts 295°
2026-05-08 01:00 52.41960 -5.05074 31936 ft 458 kts 295°
2026-05-08 01:01 52.43376 -5.09753 32127 ft 457 kts 295°
2026-05-08 01:01 52.44774 -5.14381 32335 ft 455 kts 295°
2026-05-08 01:01 52.46161 -5.18982 32562 ft 452 kts 295°
2026-05-08 01:01 52.47559 -5.23627 32746 ft 451 kts 295°
2026-05-08 01:02 52.48922 -5.28165 32885 ft 451 kts 295°
2026-05-08 01:02 52.50313 -5.32805 33019 ft 451 kts 295°
2026-05-08 01:02 52.51679 -5.37371 33165 ft 450 kts 295°
2026-05-08 01:02 52.53046 -5.41950 33354 ft 448 kts 295°
2026-05-08 01:03 52.54407 -5.46513 33565 ft 446 kts 295°
2026-05-08 01:03 52.55868 -5.50979 33707 ft 446 kts 301°
2026-05-08 01:03 52.57623 -5.55137 33824 ft 447 kts 304°
2026-05-08 01:03 52.59430 -5.59262 33953 ft 446 kts 304°
2026-05-08 01:04 52.61250 -5.63426 33979 ft 445 kts 304°
2026-05-08 01:04 52.64829 -5.71651 33989 ft 444 kts 303°
2026-05-08 01:05 52.68393 -5.79890 33993 ft 443 kts 303°
2026-05-08 01:05 52.71941 -5.88128 33998 ft 442 kts 303°
2026-05-08 01:06 52.75466 -5.96341 33999 ft 442 kts 303°
2026-05-08 01:06 52.79013 -6.04637 33995 ft 441 kts 303°
2026-05-08 01:07 52.82520 -6.12866 33989 ft 441 kts 303°
2026-05-08 01:07 52.86043 -6.21161 33979 ft 441 kts 302°
2026-05-08 01:08 52.89540 -6.29421 33971 ft 442 kts 302°
2026-05-08 01:08 52.93040 -6.37716 33969 ft 440 kts 302°
2026-05-08 01:09 52.96549 -6.46059 33965 ft 441 kts 302°
2026-05-08 01:09 53.00014 -6.54324 33967 ft 440 kts 302°
2026-05-08 01:10 53.03489 -6.62642 33966 ft 439 kts 302°
2026-05-08 01:10 53.06956 -6.70967 33974 ft 439 kts 301°
2026-05-08 01:11 53.10430 -6.79336 33977 ft 439 kts 301°
2026-05-08 01:11 53.13868 -6.87646 33982 ft 438 kts 301°
2026-05-08 01:12 53.17309 -6.95990 33979 ft 439 kts 301°
2026-05-08 01:12 53.20725 -7.04302 33978 ft 437 kts 301°
2026-05-08 01:13 53.24151 -7.12665 33976 ft 438 kts 301°
2026-05-08 01:13 53.27589 -7.21086 33975 ft 438 kts 301°
2026-05-08 01:14 53.30997 -7.29458 33971 ft 438 kts 300°
2026-05-08 01:14 53.34399 -7.37847 33973 ft 438 kts 301°
2026-05-08 01:15 53.37789 -7.46232 33974 ft 436 kts 300°
2026-05-08 01:15 53.41171 -7.54627 33975 ft 436 kts 300°
2026-05-08 01:16 53.44534 -7.63000 33973 ft 436 kts 300°
2026-05-08 01:16 53.47898 -7.71406 33981 ft 436 kts 299°
2026-05-08 01:17 53.51268 -7.79856 33978 ft 435 kts 299°
2026-05-08 01:17 53.54621 -7.88289 33976 ft 435 kts 299°
2026-05-08 01:18 53.57959 -7.96713 33979 ft 435 kts 299°
2026-05-08 01:18 53.61284 -8.05132 33974 ft 434 kts 299°
2026-05-08 01:19 53.64624 -8.13621 33970 ft 435 kts 298°
2026-05-08 01:19 53.67944 -8.22082 33972 ft 435 kts 298°
2026-05-08 01:20 53.71249 -8.30539 33971 ft 435 kts 298°
2026-05-08 01:20 53.74585 -8.39100 33969 ft 436 kts 298°
2026-05-08 01:21 53.77895 -8.47624 33960 ft 436 kts 298°
2026-05-08 01:21 53.81182 -8.56121 33962 ft 436 kts 298°
2026-05-08 01:22 53.84504 -8.64733 33965 ft 436 kts 298°
2026-05-08 01:22 53.87793 -8.73291 33976 ft 436 kts 297°
2026-05-08 01:23 53.91072 -8.81854 33975 ft 435 kts 297°
2026-05-08 01:23 53.94347 -8.90433 33976 ft 436 kts 297°
2026-05-08 01:24 53.97626 -8.99055 33979 ft 436 kts 297°
2026-05-08 01:24 54.00889 -9.07663 33972 ft 436 kts 297°
2026-05-08 01:25 54.04156 -9.16310 33973 ft 437 kts 297°
2026-05-08 01:25 54.07421 -9.24984 33976 ft 437 kts 297°
2026-05-08 01:26 54.10686 -9.33689 33977 ft 438 kts 297°
2026-05-08 01:26 54.13958 -9.42440 33967 ft 438 kts 297°
2026-05-08 01:27 54.17211 -9.51174 33960 ft 439 kts 297°
2026-05-08 01:27 54.20468 -9.59948 33960 ft 439 kts 297°
2026-05-08 01:28 54.23714 -9.68724 33986 ft 439 kts 296°
2026-05-08 01:28 54.26945 -9.77489 33977 ft 440 kts 296°
2026-05-08 01:29 54.30191 -9.86326 33971 ft 441 kts 296°
2026-05-08 01:29 54.33437 -9.95197 33987 ft 441 kts 296°
2026-05-08 01:30 54.36686 -10.04106 33992 ft 443 kts 296°
2026-05-08 01:30 54.39925 -10.13021 33984 ft 443 kts 296°
2026-05-08 01:31 54.43178 -10.22006 33963 ft 443 kts 296°
2026-05-08 01:31 54.46401 -10.30940 33966 ft 444 kts 296°
2026-05-08 01:32 54.49639 -10.39952 33978 ft 444 kts 296°
2026-05-08 01:32 54.52867 -10.48966 33960 ft 444 kts 296°
2026-05-08 01:33 54.56080 -10.57972 33975 ft 445 kts 296°
2026-05-08 01:33 54.59304 -10.67040 33980 ft 444 kts 295°
2026-05-08 01:34 54.62515 -10.76106 33994 ft 444 kts 295°
2026-05-08 01:34 54.65713 -10.85168 33992 ft 446 kts 295°
2026-05-08 01:35 54.68925 -10.94304 33977 ft 446 kts 295°
2026-05-08 01:35 54.72113 -11.03407 34017 ft 446 kts 295°
2026-05-08 01:36 54.75310 -11.12567 33986 ft 447 kts 295°
2026-05-08 01:36 54.78497 -11.21736 33998 ft 447 kts 295°
2026-05-08 01:37 54.81684 -11.30936 33937 ft 448 kts 295°
2026-05-08 01:37 54.84870 -11.40171 33974 ft 448 kts 295°
2026-05-08 01:38 54.88070 -11.49478 33961 ft 448 kts 295°
2026-05-08 01:38 54.91231 -11.58709 33985 ft 448 kts 295°
2026-05-08 01:39 54.94405 -11.68014 33994 ft 448 kts 295°
2026-05-08 01:39 54.97544 -11.77250 34001 ft 448 kts 295°
2026-05-08 01:40 55.00715 -11.86616 33998 ft 448 kts 295°
2026-05-08 01:40 55.03865 -11.95959 33990 ft 450 kts 295°
2026-05-08 01:41 55.07010 -12.05317 33998 ft 451 kts 295°
2026-05-08 01:41 55.10144 -12.14681 33992 ft 450 kts 295°
2026-05-08 01:42 55.13287 -12.24110 33990 ft 450 kts 295°
2026-05-08 01:42 55.16424 -12.33559 33987 ft 452 kts 295°
2026-05-08 01:43 55.19560 -12.43037 33996 ft 452 kts 295°
2026-05-08 01:43 55.22689 -12.52534 33982 ft 452 kts 295°
2026-05-08 01:44 55.25800 -12.62013 33988 ft 451 kts 295°
2026-05-08 01:44 55.28920 -12.71558 34019 ft 452 kts 295°
2026-05-08 01:45 55.32026 -12.81095 34018 ft 453 kts 295°
2026-05-08 01:45 55.35140 -12.90699 33999 ft 453 kts 295°
2026-05-08 01:46 55.38244 -13.00308 33985 ft 454 kts 295°
2026-05-08 01:46 55.41327 -13.09889 34004 ft 454 kts 295°
2026-05-08 01:47 55.44418 -13.19535 33995 ft 455 kts 295°
2026-05-08 01:47 55.47528 -13.29279 34000 ft 456 kts 295°
2026-05-08 01:48 55.52155 -13.43853 34010 ft 457 kts 295°
2026-05-08 01:48 55.55235 -13.53599 34001 ft 457 kts 296°
2026-05-08 01:49 55.58310 -13.63375 34011 ft 458 kts 296°
2026-05-08 01:49 55.61392 -13.73210 34026 ft 458 kts 295°
2026-05-08 01:50 55.64455 -13.83023 34011 ft 459 kts 295°
2026-05-08 01:50 55.67520 -13.92888 34028 ft 459 kts 295°
2026-05-08 01:51 55.70588 -14.02798 34020 ft 458 kts 295°
2026-05-08 01:51 55.73631 -14.12674 34021 ft 459 kts 295°
2026-05-08 01:52 55.76676 -14.22593 34033 ft 459 kts 295°
2026-05-08 01:52 55.79709 -14.32516 34025 ft 460 kts 296°
2026-05-08 01:53 55.82739 -14.42474 34020 ft 461 kts 296°
2026-05-08 01:53 55.85778 -14.52502 34023 ft 461 kts 296°
2026-05-08 01:54 55.88786 -14.62468 34023 ft 460 kts 296°
2026-05-08 01:54 55.91790 -14.72463 34025 ft 460 kts 295°
2026-05-08 01:55 55.94796 -14.82510 34028 ft 461 kts 295°
2026-05-08 01:55 55.97791 -14.92562 34026 ft 460 kts 295°
2026-05-08 01:56 56.00538 -15.02826 34029 ft 458 kts 290°
2026-05-08 01:56 56.02941 -15.13292 34031 ft 459 kts 290°
2026-05-08 01:57 56.05329 -15.23852 34034 ft 459 kts 290°
2026-05-08 01:57 56.07692 -15.34402 34038 ft 460 kts 290°
2026-05-08 01:58 56.10045 -15.44994 34044 ft 460 kts 290°
2026-05-08 01:58 56.12381 -15.55575 34050 ft 460 kts 290°
2026-05-08 01:59 56.14725 -15.66252 34051 ft 460 kts 289°
2026-05-08 01:59 56.17040 -15.76858 34053 ft 459 kts 290°
2026-05-08 02:00 56.19342 -15.87459 34063 ft 459 kts 290°
2026-05-08 02:00 56.21642 -15.98106 34060 ft 459 kts 290°
2026-05-08 02:01 56.23939 -16.08795 34059 ft 460 kts 290°
2026-05-08 02:01 56.26215 -16.19438 34066 ft 459 kts 290°
2026-05-08 02:02 56.28497 -16.30173 34067 ft 460 kts 290°
2026-05-08 02:02 56.30756 -16.40854 34072 ft 460 kts 290°
2026-05-08 02:03 56.33009 -16.51561 34073 ft 460 kts 290°
2026-05-08 02:03 56.35264 -16.62336 34074 ft 460 kts 290°
2026-05-08 02:04 56.37509 -16.73117 34081 ft 460 kts 289°
2026-05-08 02:04 56.39731 -16.83846 34087 ft 460 kts 289°
2026-05-08 02:05 56.41953 -16.94633 34083 ft 460 kts 289°
2026-05-08 02:05 56.44163 -17.05422 34090 ft 460 kts 289°
2026-05-08 02:06 56.46366 -17.16235 34090 ft 460 kts 290°
2026-05-08 02:06 56.48555 -17.27040 34090 ft 461 kts 290°
2026-05-08 02:07 56.50732 -17.37842 34089 ft 461 kts 290°
2026-05-08 02:07 56.52904 -17.48673 34089 ft 461 kts 290°
2026-05-08 02:08 56.55076 -17.59570 34088 ft 460 kts 290°
2026-05-08 02:08 56.57237 -17.70472 34091 ft 460 kts 289°
2026-05-08 02:09 56.59380 -17.81337 34091 ft 461 kts 289°
2026-05-08 02:09 56.61525 -17.92282 34090 ft 461 kts 289°
2026-05-08 02:10 56.63645 -18.03155 34090 ft 461 kts 289°
2026-05-08 02:10 56.65774 -18.14138 34092 ft 460 kts 289°
2026-05-08 02:11 56.67875 -18.25035 34097 ft 461 kts 289°
2026-05-08 02:11 56.69975 -18.35994 34104 ft 461 kts 290°
2026-05-08 02:12 56.72068 -18.46976 34106 ft 462 kts 290°
2026-05-08 02:12 56.74165 -18.58043 34110 ft 462 kts 290°
2026-05-08 02:13 56.76242 -18.69063 34116 ft 461 kts 289°
2026-05-08 02:13 56.78297 -18.80033 34123 ft 462 kts 289°
2026-05-08 02:14 56.80364 -18.91137 34125 ft 463 kts 289°
2026-05-08 02:14 56.82406 -19.02167 34129 ft 463 kts 289°
2026-05-08 02:15 56.84452 -19.13282 34130 ft 463 kts 289°
2026-05-08 02:15 56.86488 -19.24412 34134 ft 462 kts 289°
2026-05-08 02:16 56.88504 -19.35496 34135 ft 463 kts 289°
2026-05-08 02:16 56.90517 -19.46632 34137 ft 462 kts 290°
2026-05-08 02:17 56.92501 -19.57670 34140 ft 462 kts 290°
2026-05-08 02:17 56.94498 -19.68848 34143 ft 463 kts 289°
2026-05-08 02:18 56.96476 -19.79990 34143 ft 463 kts 289°
2026-05-08 02:18 56.98446 -19.91151 34145 ft 464 kts 289°
2026-05-08 02:19 57.00428 -20.02389 34148 ft 463 kts 291°
2026-05-08 02:19 57.02595 -20.13404 34151 ft 462 kts 292°
2026-05-08 02:20 57.04772 -20.24466 34154 ft 462 kts 292°
2026-05-08 02:20 57.06932 -20.35546 34154 ft 462 kts 292°
2026-05-08 02:21 57.09081 -20.46655 34156 ft 462 kts 292°
2026-05-08 02:21 57.11199 -20.57684 34166 ft 462 kts 292°
2026-05-08 02:22 57.13331 -20.68850 34169 ft 462 kts 291°
2026-05-08 02:22 57.15446 -20.79998 34171 ft 462 kts 291°
2026-05-08 02:23 57.17539 -20.91098 34173 ft 462 kts 291°
2026-05-08 02:23 57.19624 -21.02219 34175 ft 463 kts 292°
2026-05-08 02:24 57.21720 -21.13461 34177 ft 464 kts 292°
2026-05-08 02:24 57.23786 -21.24615 34180 ft 462 kts 292°
2026-05-08 02:25 57.25838 -21.35758 34181 ft 462 kts 292°
2026-05-08 02:25 57.27898 -21.47004 34182 ft 461 kts 292°
2026-05-08 02:26 57.29934 -21.58194 34187 ft 461 kts 292°
2026-05-08 02:26 57.31961 -21.69394 34189 ft 462 kts 291°
2026-05-08 02:27 57.33983 -21.80641 34190 ft 463 kts 291°
2026-05-08 02:27 57.35992 -21.91884 34194 ft 462 kts 291°
2026-05-08 02:28 57.37993 -22.03144 34194 ft 461 kts 292°
2026-05-08 02:28 57.39969 -22.14339 34197 ft 462 kts 292°
2026-05-08 02:29 57.41952 -22.25639 34197 ft 462 kts 292°
2026-05-08 02:29 57.43914 -22.36891 34201 ft 461 kts 292°
2026-05-08 02:30 57.45875 -22.48200 34203 ft 462 kts 292°
2026-05-08 02:30 57.47822 -22.59508 34207 ft 461 kts 292°
2026-05-08 02:31 57.49753 -22.70788 34211 ft 461 kts 291°
2026-05-08 02:31 57.51683 -22.82134 34211 ft 461 kts 291°
2026-05-08 02:32 57.53595 -22.93449 34215 ft 460 kts 292°
2026-05-08 02:32 57.55492 -23.04741 34213 ft 461 kts 291°
2026-05-08 02:33 57.57391 -23.16122 34216 ft 461 kts 292°
2026-05-08 02:33 57.59267 -23.27438 34220 ft 461 kts 292°
2026-05-08 02:34 57.61138 -23.38793 34220 ft 460 kts 292°
2026-05-08 02:34 57.63009 -23.50223 34221 ft 460 kts 292°
2026-05-08 02:35 57.64853 -23.61570 34223 ft 459 kts 292°
2026-05-08 02:35 57.66686 -23.72912 34227 ft 460 kts 291°
2026-05-08 02:36 57.68512 -23.84289 34227 ft 460 kts 292°
2026-05-08 02:36 57.70329 -23.95682 34228 ft 461 kts 292°
2026-05-08 02:37 57.72146 -24.07158 34236 ft 461 kts 292°
2026-05-08 02:37 57.73938 -24.18551 34240 ft 459 kts 292°
2026-05-08 02:38 57.75725 -24.29994 34244 ft 457 kts 292°
2026-05-08 02:38 57.77484 -24.41324 34241 ft 458 kts 292°
2026-05-08 02:39 57.79246 -24.52752 34249 ft 459 kts 292°
2026-05-08 02:39 57.80995 -24.64174 34245 ft 458 kts 292°
2026-05-08 02:40 57.82732 -24.75600 34250 ft 459 kts 292°
2026-05-08 02:40 57.84473 -24.87121 34244 ft 460 kts 292°
2026-05-08 02:41 57.86184 -24.98540 34254 ft 458 kts 292°
2026-05-08 02:41 57.87896 -25.10029 34250 ft 459 kts 292°
2026-05-08 02:42 57.89592 -25.21502 34260 ft 457 kts 292°
2026-05-08 02:42 57.91280 -25.33000 34265 ft 455 kts 293°
2026-05-08 02:43 57.92942 -25.44397 34260 ft 456 kts 293°
2026-05-08 02:43 57.94603 -25.55869 34271 ft 455 kts 293°
2026-05-08 02:44 57.96246 -25.67291 34262 ft 456 kts 292°
2026-05-08 02:44 57.97895 -25.78847 34266 ft 457 kts 293°
2026-05-08 02:45 57.99519 -25.90320 34269 ft 453 kts 293°
2026-05-08 02:45 58.01129 -26.01766 34280 ft 455 kts 293°
2026-05-08 02:46 58.02724 -26.13193 34272 ft 450 kts 293°
2026-05-08 02:46 58.04300 -26.24558 34291 ft 452 kts 293°
2026-05-08 02:47 58.05877 -26.36007 34270 ft 454 kts 294°
2026-05-08 02:47 58.07437 -26.47441 34289 ft 451 kts 294°
2026-05-08 02:48 58.08982 -26.58839 34287 ft 449 kts 294°
2026-05-08 02:48 58.10517 -26.70241 34297 ft 450 kts 293°
2026-05-08 02:49 58.12050 -26.81717 34322 ft 452 kts 294°
2026-05-08 02:49 58.13573 -26.93213 34317 ft 449 kts 293°
2026-05-08 02:50 58.15061 -27.04528 34337 ft 448 kts 294°
2026-05-08 02:50 58.16552 -27.15944 34335 ft 449 kts 294°
2026-05-08 02:51 58.18024 -27.27317 34354 ft 447 kts 294°
2026-05-08 02:51 58.19490 -27.38717 34380 ft 448 kts 295°
2026-05-08 02:52 58.20943 -27.50126 34341 ft 442 kts 295°
2026-05-08 02:52 58.22361 -27.61332 34353 ft 442 kts 295°
2026-05-08 02:53 58.23796 -27.72730 34344 ft 446 kts 294°
2026-05-08 02:53 58.25206 -27.84070 34356 ft 442 kts 295°
2026-05-08 02:54 58.26602 -27.95356 34374 ft 443 kts 295°
2026-05-08 02:54 58.27985 -28.06648 34351 ft 439 kts 295°
2026-05-08 02:55 58.30030 -28.23484 34348 ft 439 kts 295°
2026-05-08 02:56 58.31388 -28.34773 34348 ft 441 kts 294°
2026-05-08 02:56 58.32737 -28.46101 34357 ft 438 kts 294°
2026-05-08 02:57 58.34071 -28.57377 34361 ft 439 kts 294°
2026-05-08 02:57 58.35388 -28.68609 34359 ft 439 kts 294°
2026-05-08 02:58 58.36703 -28.79911 34357 ft 439 kts 293°
2026-05-08 02:58 58.38012 -28.91256 34357 ft 439 kts 293°
2026-05-08 02:59 58.39306 -29.02569 34363 ft 439 kts 293°
2026-05-08 02:59 58.40583 -29.13840 34367 ft 438 kts 292°
2026-05-08 03:00 58.41857 -29.25155 34367 ft 439 kts 292°
2026-05-08 03:00 58.43126 -29.36541 34363 ft 438 kts 292°
2026-05-08 03:01 58.44370 -29.47800 34353 ft 438 kts 292°
2026-05-08 03:01 58.45614 -29.59151 34351 ft 439 kts 292°
2026-05-08 03:02 58.46849 -29.70519 34353 ft 439 kts 291°
2026-05-08 03:02 58.48077 -29.81932 34362 ft 440 kts 291°
2026-05-08 03:03 58.49289 -29.93285 34376 ft 440 kts 291°
2026-05-08 03:03 58.50570 -30.04698 34376 ft 434 kts 294°
2026-05-08 03:04 58.52170 -30.15718 34378 ft 435 kts 295°
2026-05-08 03:04 58.53764 -30.26851 34382 ft 435 kts 294°
2026-05-08 03:05 58.55333 -30.37985 34380 ft 437 kts 294°
2026-05-08 03:05 58.56889 -30.49174 34380 ft 435 kts 294°
2026-05-08 03:06 58.58424 -30.60302 34378 ft 435 kts 293°
2026-05-08 03:06 58.59957 -30.71511 34383 ft 437 kts 292°
2026-05-08 03:07 58.61484 -30.82764 34377 ft 438 kts 292°
2026-05-08 03:07 58.62993 -30.93977 34374 ft 437 kts 292°
2026-05-08 03:08 58.64508 -31.05307 34381 ft 439 kts 292°
2026-05-08 03:08 58.66005 -31.16599 34378 ft 438 kts 292°
2026-05-08 03:09 58.67489 -31.27872 34378 ft 438 kts 292°
2026-05-08 03:09 58.68961 -31.39141 34381 ft 437 kts 291°
2026-05-08 03:10 58.70428 -31.50455 34380 ft 438 kts 291°
2026-05-08 03:10 58.71891 -31.61820 34376 ft 439 kts 291°
2026-05-08 03:11 58.73340 -31.73163 34376 ft 439 kts 290°
2026-05-08 03:11 58.74773 -31.84480 34379 ft 438 kts 290°
2026-05-08 03:12 58.76198 -31.95807 34375 ft 439 kts 290°
2026-05-08 03:12 58.77616 -32.07176 34383 ft 439 kts 290°
2026-05-08 03:13 58.79030 -32.18595 34393 ft 439 kts 289°
2026-05-08 03:13 58.80426 -32.29968 34395 ft 439 kts 289°
2026-05-08 03:14 58.81813 -32.41349 34395 ft 440 kts 289°
2026-05-08 03:14 58.83199 -32.52823 34394 ft 439 kts 289°
2026-05-08 03:15 58.84569 -32.64254 34394 ft 441 kts 289°
2026-05-08 03:15 58.85934 -32.75734 34396 ft 442 kts 288°
2026-05-08 03:16 58.87300 -32.87323 34396 ft 444 kts 288°
2026-05-08 03:16 58.88647 -32.98846 34396 ft 443 kts 288°
2026-05-08 03:17 58.89989 -33.10423 34395 ft 443 kts 288°
2026-05-08 03:17 58.91322 -33.22020 34395 ft 442 kts 287°
2026-05-08 03:18 58.92645 -33.33633 34395 ft 443 kts 287°
2026-05-08 03:18 58.93945 -33.45145 34395 ft 442 kts 287°
2026-05-08 03:19 58.95248 -33.56774 34394 ft 441 kts 287°
2026-05-08 03:19 58.96531 -33.68326 34395 ft 443 kts 286°
2026-05-08 03:20 58.97806 -33.79918 34396 ft 443 kts 286°
2026-05-08 03:20 58.99076 -33.91560 34395 ft 444 kts 286°
2026-05-08 03:21 59.00339 -34.03247 34393 ft 444 kts 286°
2026-05-08 03:21 59.01589 -34.14916 34393 ft 443 kts 285°
2026-05-08 03:22 59.02824 -34.26551 34390 ft 443 kts 285°
2026-05-08 03:22 59.04052 -34.38226 34386 ft 443 kts 285°
2026-05-08 03:23 59.05266 -34.49883 34383 ft 442 kts 285°
2026-05-08 03:23 59.06473 -34.61580 34381 ft 443 kts 285°
2026-05-08 03:24 59.07665 -34.73235 34380 ft 444 kts 284°
2026-05-08 03:24 59.08859 -34.85017 34377 ft 444 kts 284°
2026-05-08 03:25 59.10036 -34.96751 34375 ft 445 kts 284°
2026-05-08 03:25 59.11202 -35.08496 34385 ft 444 kts 284°
2026-05-08 03:26 59.12354 -35.20210 34382 ft 442 kts 284°
2026-05-08 03:26 59.13490 -35.31867 34396 ft 443 kts 284°
2026-05-08 03:27 59.14624 -35.43626 34387 ft 442 kts 284°
2026-05-08 03:27 59.15744 -35.55360 34374 ft 441 kts 284°
2026-05-08 03:28 59.16847 -35.67036 34386 ft 442 kts 284°
2026-05-08 03:28 59.17942 -35.78735 34374 ft 441 kts 284°
2026-05-08 03:29 59.19027 -35.90454 34391 ft 441 kts 284°
2026-05-08 03:29 59.20102 -36.02193 34386 ft 441 kts 284°
2026-05-08 03:30 59.21693 -36.19776 34369 ft 442 kts 284°
2026-05-08 03:31 59.23785 -36.43352 34369 ft 442 kts 284°
2026-05-08 03:32 59.25323 -36.61003 34366 ft 442 kts 284°
2026-05-08 03:32 59.26335 -36.72797 34365 ft 442 kts 283°
2026-05-08 03:33 59.27336 -36.84576 34367 ft 442 kts 283°
2026-05-08 03:33 59.28325 -36.96343 34359 ft 442 kts 283°
2026-05-08 03:34 59.29304 -37.08137 34355 ft 441 kts 283°
2026-05-08 03:34 59.30273 -37.19945 34353 ft 441 kts 283°
2026-05-08 03:35 59.31233 -37.31771 34350 ft 441 kts 283°
2026-05-08 03:35 59.32177 -37.43549 34347 ft 441 kts 283°
2026-05-08 03:36 59.33110 -37.55332 34341 ft 441 kts 283°
2026-05-08 03:36 59.34038 -37.67176 34343 ft 441 kts 282°
2026-05-08 03:37 59.34951 -37.78981 34341 ft 440 kts 282°
2026-05-08 03:37 59.35850 -37.90752 34335 ft 440 kts 282°
2026-05-08 03:38 59.36741 -38.02570 34332 ft 438 kts 282°
2026-05-08 03:38 59.37617 -38.14314 34330 ft 438 kts 281°
2026-05-08 03:39 59.38486 -38.26123 34328 ft 439 kts 281°
2026-05-08 03:39 59.39339 -38.37879 34325 ft 438 kts 281°
2026-05-08 03:40 59.40184 -38.49662 34324 ft 439 kts 281°
2026-05-08 03:40 59.41021 -38.61486 34319 ft 439 kts 281°
2026-05-08 03:41 59.41843 -38.73262 34317 ft 439 kts 280°
2026-05-08 03:41 59.42657 -38.85081 34318 ft 438 kts 280°
2026-05-08 03:42 59.43465 -38.96963 34309 ft 438 kts 280°
2026-05-08 03:42 59.44252 -39.08700 34309 ft 438 kts 280°
2026-05-08 03:43 59.45035 -39.20550 34306 ft 438 kts 280°
2026-05-08 03:43 59.45805 -39.32374 34301 ft 438 kts 280°
2026-05-08 03:44 59.46564 -39.44198 34295 ft 437 kts 279°
2026-05-08 03:44 59.47315 -39.56052 34298 ft 438 kts 280°
2026-05-08 03:45 59.48053 -39.67890 34299 ft 437 kts 279°
2026-05-08 03:45 59.48775 -39.79649 34299 ft 438 kts 279°
2026-05-08 03:46 59.49496 -39.91567 34290 ft 439 kts 278°
2026-05-08 03:46 59.50297 -40.03333 34300 ft 437 kts 282°
2026-05-08 03:47 59.51334 -40.15081 34282 ft 437 kts 282°
2026-05-08 03:47 59.52363 -40.26820 34275 ft 435 kts 282°
2026-05-08 03:48 59.53378 -40.38525 34276 ft 437 kts 282°
2026-05-08 03:48 59.54381 -40.50231 34265 ft 433 kts 282°
2026-05-08 03:49 59.55372 -40.61923 34258 ft 434 kts 282°
2026-05-08 03:49 59.56347 -40.73552 34262 ft 434 kts 281°
2026-05-08 03:50 59.57319 -40.85276 34259 ft 434 kts 281°
2026-05-08 03:50 59.58276 -40.96968 34258 ft 434 kts 281°
2026-05-08 03:51 59.59226 -41.08687 34250 ft 434 kts 281°
2026-05-08 03:51 59.60162 -41.20387 34254 ft 433 kts 281°
2026-05-08 03:52 59.61086 -41.32068 34257 ft 433 kts 281°
2026-05-08 03:52 59.62002 -41.43786 34258 ft 432 kts 281°
2026-05-08 03:53 59.62903 -41.55451 34247 ft 430 kts 281°
2026-05-08 03:53 59.63791 -41.67080 34244 ft 431 kts 279°
2026-05-08 03:54 59.64673 -41.78773 34241 ft 431 kts 279°
2026-05-08 03:54 59.65540 -41.90427 34234 ft 430 kts 279°
2026-05-08 03:55 59.66394 -42.02036 34225 ft 429 kts 279°
2026-05-08 03:55 59.67239 -42.13665 34222 ft 430 kts 279°
2026-05-08 03:56 59.68079 -42.25382 34222 ft 431 kts 279°
2026-05-08 03:56 59.68906 -42.37065 34221 ft 432 kts 279°
2026-05-08 03:57 59.69721 -42.48735 34222 ft 432 kts 279°
2026-05-08 03:57 59.70534 -42.60539 34209 ft 432 kts 279°
2026-05-08 03:58 59.71333 -42.72292 34210 ft 432 kts 278°
2026-05-08 03:58 59.72121 -42.84036 34211 ft 433 kts 278°
2026-05-08 03:59 59.72898 -42.95781 34204 ft 433 kts 278°
2026-05-08 03:59 59.73668 -43.07588 34202 ft 433 kts 278°
2026-05-08 04:00 59.74426 -43.19365 34199 ft 432 kts 278°
2026-05-08 04:00 59.75169 -43.31099 34199 ft 432 kts 278°
2026-05-08 04:01 59.75905 -43.42874 34199 ft 432 kts 277°
2026-05-08 04:01 59.76632 -43.54705 34195 ft 432 kts 277°
2026-05-08 04:02 59.77344 -43.66445 34194 ft 433 kts 276°
2026-05-08 04:02 59.78050 -43.78264 34198 ft 433 kts 276°
2026-05-08 04:03 59.78744 -43.90096 34198 ft 434 kts 276°
2026-05-08 04:03 59.79770 -44.07887 34201 ft 433 kts 276°
2026-05-08 04:04 59.80438 -44.19712 34190 ft 433 kts 276°
2026-05-08 04:04 59.81092 -44.31509 34181 ft 431 kts 276°
2026-05-08 04:05 59.81735 -44.43259 34168 ft 432 kts 276°
2026-05-08 04:05 59.82371 -44.55107 34164 ft 431 kts 276°
2026-05-08 04:06 59.82993 -44.66891 34164 ft 432 kts 275°
2026-05-08 04:06 59.83607 -44.78724 34163 ft 432 kts 275°
2026-05-08 04:07 59.84210 -44.90553 34160 ft 430 kts 275°
2026-05-08 04:07 59.84798 -45.02299 34155 ft 431 kts 275°
2026-05-08 04:08 59.85380 -45.14152 34139 ft 432 kts 275°
2026-05-08 04:08 59.85950 -45.25972 34133 ft 431 kts 275°
2026-05-08 04:09 59.86510 -45.37797 34129 ft 432 kts 275°
2026-05-08 04:09 59.87060 -45.49654 34124 ft 432 kts 275°
2026-05-08 04:10 59.87600 -45.61520 34128 ft 433 kts 274°
2026-05-08 04:10 59.88131 -45.73440 34119 ft 434 kts 274°
2026-05-08 04:11 59.88650 -45.85348 34102 ft 435 kts 274°
2026-05-08 04:11 59.89161 -45.97283 34098 ft 436 kts 273°
2026-05-08 04:12 59.89663 -46.09297 34087 ft 435 kts 273°
2026-05-08 04:12 59.90152 -46.21237 34083 ft 436 kts 273°
2026-05-08 04:13 59.90630 -46.33201 34082 ft 436 kts 273°
2026-05-08 04:13 59.91099 -46.45203 34076 ft 435 kts 273°
2026-05-08 04:14 59.91555 -46.57174 34073 ft 434 kts 273°
2026-05-08 04:14 59.92003 -46.69191 34076 ft 435 kts 272°
2026-05-08 04:15 59.92435 -46.81109 34073 ft 436 kts 272°
2026-05-08 04:15 59.92862 -46.93164 34071 ft 436 kts 272°
2026-05-08 04:16 59.93276 -47.05157 34059 ft 437 kts 272°
2026-05-08 04:16 59.93680 -47.17207 34051 ft 436 kts 271°
2026-05-08 04:17 59.94071 -47.29189 34059 ft 437 kts 272°
2026-05-08 04:17 59.94453 -47.41218 34054 ft 436 kts 271°
2026-05-08 04:18 59.94823 -47.53227 34046 ft 434 kts 271°
2026-05-08 04:18 59.95180 -47.65176 34043 ft 435 kts 271°
2026-05-08 04:19 59.95528 -47.77171 34043 ft 435 kts 270°
2026-05-08 04:19 59.95864 -47.89159 34033 ft 435 kts 270°
2026-05-08 04:20 59.96191 -48.01194 34026 ft 435 kts 270°
2026-05-08 04:20 59.96504 -48.13083 34019 ft 430 kts 270°
2026-05-08 04:21 59.96806 -48.25002 34019 ft 431 kts 270°
2026-05-08 04:21 59.97096 -48.36894 34002 ft 433 kts 270°
2026-05-08 04:22 59.97377 -48.48866 33988 ft 436 kts 270°
2026-05-08 04:22 59.97649 -48.60864 33983 ft 432 kts 270°
2026-05-08 04:23 59.97908 -48.72754 33984 ft 432 kts 269°
2026-05-08 04:23 59.98155 -48.84664 33983 ft 431 kts 269°
2026-05-08 04:24 59.98393 -48.96608 33976 ft 431 kts 269°
2026-05-08 04:24 59.98618 -49.08443 33964 ft 429 kts 269°
2026-05-08 04:25 59.98833 -49.20325 33956 ft 428 kts 269°
2026-05-08 04:25 59.99036 -49.32087 33953 ft 428 kts 269°
2026-05-08 04:26 59.99228 -49.43890 33942 ft 426 kts 270°
2026-05-08 04:26 59.99410 -49.55642 33934 ft 426 kts 269°
2026-05-08 04:27 59.99580 -49.67354 33937 ft 422 kts 269°
2026-05-08 04:27 59.99739 -49.79056 33933 ft 421 kts 269°
2026-05-08 04:28 59.99887 -49.90611 33926 ft 418 kts 269°
2026-05-08 04:28 60.00034 -50.02220 33918 ft 418 kts 271°
2026-05-08 04:29 60.01000 -50.13623 33926 ft 421 kts 278°
2026-05-08 04:29 60.02119 -50.25099 33921 ft 421 kts 277°
2026-05-08 04:30 60.03165 -50.36488 33914 ft 421 kts 277°
2026-05-08 04:30 60.04182 -50.47979 33916 ft 424 kts 276°
2026-05-08 04:31 60.05188 -50.59616 33903 ft 423 kts 276°
2026-05-08 04:31 60.06169 -50.71161 33900 ft 424 kts 275°
2026-05-08 04:32 60.07146 -50.82827 33890 ft 424 kts 275°
2026-05-08 04:32 60.08103 -50.94405 33874 ft 426 kts 275°
2026-05-08 04:33 60.09061 -51.06128 33867 ft 426 kts 275°
2026-05-08 04:33 60.09999 -51.17742 33865 ft 425 kts 275°
2026-05-08 04:34 60.10932 -51.29447 33847 ft 427 kts 274°
2026-05-08 04:34 60.11856 -51.41149 33845 ft 423 kts 274°
2026-05-08 04:35 60.12762 -51.52784 33835 ft 425 kts 274°
2026-05-08 04:35 60.13657 -51.64407 33833 ft 425 kts 274°
2026-05-08 04:36 60.14547 -51.76095 33839 ft 424 kts 273°
2026-05-08 04:36 60.15418 -51.87678 33833 ft 421 kts 273°
2026-05-08 04:37 60.16276 -51.99245 33830 ft 422 kts 272°
2026-05-08 04:37 60.17129 -52.10867 33826 ft 420 kts 272°
2026-05-08 04:38 60.17965 -52.22420 33814 ft 423 kts 272°
2026-05-08 04:38 60.18797 -52.34053 33803 ft 421 kts 272°
2026-05-08 04:39 60.19614 -52.45617 33799 ft 421 kts 272°
2026-05-08 04:39 60.20423 -52.57224 33785 ft 422 kts 271°
2026-05-08 04:40 60.21223 -52.68849 33783 ft 422 kts 271°
2026-05-08 04:40 60.22014 -52.80505 33781 ft 421 kts 271°
2026-05-08 04:41 60.22793 -52.92136 33791 ft 422 kts 271°
2026-05-08 04:41 60.23564 -53.03809 33762 ft 422 kts 271°
2026-05-08 04:42 60.24323 -53.15459 33762 ft 426 kts 271°
2026-05-08 04:42 60.25077 -53.27193 33760 ft 425 kts 270°
2026-05-08 04:43 60.25823 -53.38977 33747 ft 426 kts 270°
2026-05-08 04:43 60.26562 -53.50796 33744 ft 424 kts 271°
2026-05-08 04:44 60.27282 -53.62503 33740 ft 426 kts 270°
2026-05-08 04:44 60.27992 -53.74197 33750 ft 422 kts 270°
2026-05-08 04:45 60.28691 -53.85927 33715 ft 424 kts 269°
2026-05-08 04:45 60.29387 -53.97785 33729 ft 426 kts 269°
2026-05-08 04:46 60.30068 -54.09528 33725 ft 425 kts 270°
2026-05-08 04:46 60.30742 -54.21365 33725 ft 426 kts 269°
2026-05-08 04:47 60.31400 -54.33111 33717 ft 427 kts 270°
2026-05-08 04:47 60.32052 -54.44918 33696 ft 426 kts 269°
2026-05-08 04:48 60.32698 -54.56846 33703 ft 430 kts 269°
2026-05-08 04:48 60.33332 -54.68708 33692 ft 426 kts 269°
2026-05-08 04:49 60.33953 -54.80566 33681 ft 428 kts 268°
2026-05-08 04:49 60.34568 -54.92514 33675 ft 428 kts 269°
2026-05-08 04:50 60.35168 -55.04366 33669 ft 429 kts 268°
2026-05-08 04:50 60.35762 -55.16330 33663 ft 430 kts 268°
2026-05-08 04:51 60.36344 -55.28265 33652 ft 429 kts 268°
2026-05-08 04:51 60.36918 -55.40239 33653 ft 429 kts 268°
2026-05-08 04:52 60.37479 -55.52220 33653 ft 431 kts 267°
2026-05-08 04:52 60.38029 -55.64153 33665 ft 430 kts 267°
2026-05-08 04:53 60.38569 -55.76104 33650 ft 431 kts 266°
2026-05-08 04:53 60.39102 -55.88205 33642 ft 432 kts 266°
2026-05-08 04:54 60.39625 -56.00235 33625 ft 430 kts 266°
2026-05-08 04:54 60.40130 -56.12196 33627 ft 432 kts 266°
2026-05-08 04:55 60.40631 -56.24259 33614 ft 432 kts 266°
2026-05-08 04:55 60.41121 -56.36365 33623 ft 433 kts 265°
2026-05-08 04:56 60.41600 -56.48429 33613 ft 432 kts 265°
2026-05-08 04:56 60.42066 -56.60509 33617 ft 435 kts 265°
2026-05-08 04:57 60.42527 -56.72693 33619 ft 433 kts 265°
2026-05-08 04:57 60.42971 -56.84702 33615 ft 433 kts 264°
2026-05-08 04:58 60.43406 -56.96846 33604 ft 435 kts 265°
2026-05-08 04:58 60.43835 -57.09099 33593 ft 438 kts 264°
2026-05-08 04:59 60.44253 -57.21352 33599 ft 438 kts 265°
2026-05-08 04:59 60.44658 -57.33527 33581 ft 437 kts 264°
2026-05-08 05:00 60.45052 -57.45764 33586 ft 438 kts 264°
2026-05-08 05:00 60.45439 -57.58149 33585 ft 441 kts 264°
2026-05-08 05:01 60.45812 -57.70372 33586 ft 440 kts 263°
2026-05-08 05:01 60.46175 -57.82692 33580 ft 440 kts 263°
2026-05-08 05:02 60.46527 -57.95049 33581 ft 442 kts 264°
2026-05-08 05:02 60.46984 -58.07458 33574 ft 445 kts 265°
2026-05-08 05:03 60.47502 -58.19863 33580 ft 444 kts 265°
2026-05-08 05:03 60.48012 -58.32394 33567 ft 449 kts 265°
2026-05-08 05:04 60.48513 -58.44972 33559 ft 452 kts 265°
2026-05-08 05:04 60.49004 -58.57532 33564 ft 450 kts 265°
2026-05-08 05:05 60.49483 -58.70132 33576 ft 451 kts 264°
2026-05-08 05:05 60.49953 -58.82826 33602 ft 452 kts 264°
2026-05-08 05:06 60.50183 -58.89164 33723 ft 452 kts 264°
2026-05-08 05:06 60.50409 -58.95469 33864 ft 452 kts 264°
2026-05-08 05:06 60.50633 -59.01786 33984 ft 452 kts 264°
2026-05-08 05:06 60.50853 -59.08116 34028 ft 453 kts 264°
2026-05-08 05:07 60.51070 -59.14442 34139 ft 453 kts 264°
2026-05-08 05:07 60.51287 -59.20799 34307 ft 451 kts 264°
2026-05-08 05:07 60.51500 -59.27145 34475 ft 450 kts 264°
2026-05-08 05:07 60.51708 -59.33459 34558 ft 450 kts 264°
2026-05-08 05:08 60.52114 -59.46075 34677 ft 452 kts 264°
2026-05-08 05:08 60.52510 -59.58747 34790 ft 454 kts 265°
2026-05-08 05:09 60.52896 -59.71494 34925 ft 455 kts 264°
2026-05-08 05:09 60.53272 -59.84238 35127 ft 453 kts 264°
2026-05-08 05:10 60.53809 -60.03314 35233 ft 456 kts 265°
2026-05-08 05:11 60.54155 -60.16177 35265 ft 459 kts 265°
2026-05-08 05:11 60.54492 -60.29117 35357 ft 460 kts 265°
2026-05-08 05:12 60.54814 -60.42007 35398 ft 462 kts 265°
2026-05-08 05:12 60.55128 -60.55061 35430 ft 465 kts 266°
2026-05-08 05:13 60.55430 -60.68118 35498 ft 466 kts 265°
2026-05-08 05:13 60.55721 -60.81251 35572 ft 467 kts 265°
2026-05-08 05:14 60.55998 -60.94379 35580 ft 467 kts 265°
2026-05-08 05:14 60.56264 -61.07535 35590 ft 468 kts 265°
2026-05-08 05:15 60.56515 -61.20668 35584 ft 470 kts 266°
2026-05-08 05:15 60.56755 -61.33924 35595 ft 471 kts 266°
2026-05-08 05:16 60.56982 -61.47136 35602 ft 472 kts 266°
2026-05-08 05:16 60.57198 -61.60483 35599 ft 473 kts 266°
2026-05-08 05:17 60.57400 -61.73701 35581 ft 472 kts 266°
2026-05-08 05:17 60.57589 -61.87003 35607 ft 473 kts 266°
2026-05-08 05:18 60.57764 -62.00293 35621 ft 474 kts 266°
2026-05-08 05:18 60.57927 -62.13648 35611 ft 474 kts 266°
2026-05-08 05:19 60.58076 -62.26965 35623 ft 474 kts 266°
2026-05-08 05:19 60.58213 -62.40374 35624 ft 474 kts 266°
2026-05-08 05:20 60.58335 -62.53676 35637 ft 476 kts 266°
2026-05-08 05:20 60.58824 -62.67049 35625 ft 478 kts 270°
2026-05-08 05:21 60.59420 -62.80450 35651 ft 478 kts 270°
2026-05-08 05:21 60.59985 -62.93879 35643 ft 478 kts 270°
2026-05-08 05:22 60.60521 -63.07199 35651 ft 477 kts 270°
2026-05-08 05:22 60.61044 -63.20684 35652 ft 478 kts 270°
2026-05-08 05:23 60.61547 -63.34061 35650 ft 478 kts 270°
2026-05-08 05:23 60.62038 -63.47519 35663 ft 479 kts 270°
2026-05-08 05:24 60.62514 -63.60978 35663 ft 479 kts 271°
2026-05-08 05:24 60.62976 -63.74439 35664 ft 478 kts 270°
2026-05-08 05:25 60.63422 -63.87856 35668 ft 479 kts 270°
2026-05-08 05:25 60.63858 -64.01344 35668 ft 479 kts 270°
2026-05-08 05:26 60.64279 -64.14838 35672 ft 479 kts 270°
2026-05-08 05:26 60.64688 -64.28339 35673 ft 479 kts 270°
2026-05-08 05:27 60.65083 -64.41889 35661 ft 480 kts 270°
2026-05-08 05:27 60.65462 -64.55309 35675 ft 480 kts 270°
2026-05-08 05:28 60.65831 -64.68876 35664 ft 479 kts 269°
2026-05-08 05:28 60.66184 -64.82365 35670 ft 480 kts 269°
2026-05-08 05:29 60.66523 -64.95850 35672 ft 480 kts 269°
2026-05-08 05:29 60.66851 -65.09410 35690 ft 480 kts 269°
2026-05-08 05:30 60.67165 -65.22978 35691 ft 481 kts 269°
2026-05-08 05:30 60.67464 -65.36492 35693 ft 480 kts 269°
2026-05-08 05:31 60.67749 -65.50006 35694 ft 479 kts 269°
2026-05-08 05:31 60.68021 -65.63539 35695 ft 479 kts 269°
2026-05-08 05:32 60.68278 -65.77017 35698 ft 479 kts 268°
2026-05-08 05:32 60.68523 -65.90579 35701 ft 480 kts 268°
2026-05-08 05:33 60.68754 -66.04091 35687 ft 479 kts 269°
2026-05-08 05:33 60.68971 -66.17595 35696 ft 479 kts 269°
2026-05-08 05:34 60.69175 -66.31152 35702 ft 478 kts 269°
2026-05-08 05:34 60.69364 -66.44629 35694 ft 479 kts 269°
2026-05-08 05:35 60.69540 -66.58103 35702 ft 479 kts 269°
2026-05-08 05:35 60.69702 -66.71609 35708 ft 478 kts 268°
2026-05-08 05:36 60.69852 -66.85188 35707 ft 478 kts 268°
2026-05-08 05:36 60.69987 -66.98724 35715 ft 479 kts 268°
2026-05-08 05:37 60.70446 -67.12215 35712 ft 481 kts 272°
2026-05-08 05:37 60.71091 -67.25736 35711 ft 480 kts 272°
2026-05-08 05:38 60.71699 -67.39231 35709 ft 480 kts 272°
2026-05-08 05:38 60.72280 -67.52689 35713 ft 480 kts 272°
2026-05-08 05:39 60.72845 -67.66251 35711 ft 480 kts 271°
2026-05-08 05:39 60.73392 -67.79813 35722 ft 480 kts 271°
2026-05-08 05:40 60.73923 -67.93340 35720 ft 481 kts 271°
2026-05-08 05:40 60.74438 -68.06865 35727 ft 480 kts 271°
2026-05-08 05:41 60.74941 -68.20434 35731 ft 479 kts 271°
2026-05-08 05:41 60.75428 -68.33944 35731 ft 480 kts 271°
2026-05-08 05:42 60.75902 -68.47505 35733 ft 480 kts 271°
2026-05-08 05:42 60.76360 -68.61011 35733 ft 481 kts 271°
2026-05-08 05:43 60.76810 -68.74640 35737 ft 480 kts 270°
2026-05-08 05:43 60.77239 -68.88100 35729 ft 479 kts 270°
2026-05-08 05:44 60.77660 -69.01703 35733 ft 479 kts 270°
2026-05-08 05:44 60.78064 -69.15223 35732 ft 479 kts 270°
2026-05-08 05:45 60.78454 -69.28754 35719 ft 480 kts 270°
2026-05-08 05:45 60.78833 -69.42361 35720 ft 480 kts 270°
2026-05-08 05:46 60.79197 -69.55923 35718 ft 481 kts 270°
2026-05-08 05:46 60.79549 -69.69540 35701 ft 480 kts 270°
2026-05-08 05:47 60.79886 -69.83099 35689 ft 480 kts 270°
2026-05-08 05:47 60.80208 -69.96645 35683 ft 479 kts 270°
2026-05-08 05:48 60.80517 -70.10216 35674 ft 479 kts 270°
2026-05-08 05:48 60.80812 -70.23748 35660 ft 480 kts 270°
2026-05-08 05:49 60.81096 -70.37432 35659 ft 481 kts 270°
2026-05-08 05:49 60.81363 -70.50956 35654 ft 481 kts 270°
2026-05-08 05:50 60.81618 -70.64588 35667 ft 481 kts 270°
2026-05-08 05:50 60.81860 -70.78238 35665 ft 480 kts 269°
2026-05-08 05:51 60.82087 -70.91829 35653 ft 480 kts 269°
2026-05-08 05:51 60.82304 -71.05613 35648 ft 480 kts 269°
2026-05-08 05:52 60.82503 -71.19204 35648 ft 481 kts 269°
2026-05-08 05:52 60.82689 -71.32867 35646 ft 481 kts 269°
2026-05-08 05:53 60.82862 -71.46519 35648 ft 481 kts 269°
2026-05-08 05:53 60.83020 -71.60117 35652 ft 480 kts 269°
2026-05-08 05:54 60.83165 -71.73774 35655 ft 480 kts 269°
2026-05-08 05:54 60.83295 -71.87380 35644 ft 480 kts 269°
2026-05-08 05:55 60.83412 -72.00933 35628 ft 481 kts 269°
2026-05-08 05:55 60.83515 -72.14611 35631 ft 481 kts 269°
2026-05-08 05:56 60.83605 -72.28236 35643 ft 481 kts 269°
2026-05-08 05:56 60.83681 -72.41926 35649 ft 481 kts 269°
2026-05-08 05:57 60.83742 -72.55471 35651 ft 480 kts 269°
2026-05-08 05:57 60.83790 -72.69160 35646 ft 481 kts 268°
2026-05-08 05:58 60.83825 -72.82797 35645 ft 481 kts 268°
2026-05-08 05:58 60.83845 -72.96410 35641 ft 481 kts 268°
2026-05-08 05:59 60.83851 -73.10295 35639 ft 482 kts 268°
2026-05-08 05:59 60.83844 -73.23971 35631 ft 482 kts 268°
2026-05-08 06:00 60.83823 -73.37619 35632 ft 482 kts 268°
2026-05-08 06:00 60.83787 -73.51266 35632 ft 481 kts 268°
2026-05-08 06:01 60.83738 -73.64912 35630 ft 481 kts 268°
2026-05-08 06:01 60.83675 -73.78585 35624 ft 482 kts 268°
2026-05-08 06:02 60.83598 -73.92271 35624 ft 481 kts 268°
2026-05-08 06:02 60.83508 -74.05911 35625 ft 481 kts 268°
2026-05-08 06:03 60.83403 -74.19598 35630 ft 481 kts 268°
2026-05-08 06:03 60.83285 -74.33218 35628 ft 482 kts 268°
2026-05-08 06:04 60.83152 -74.46932 35632 ft 482 kts 268°
2026-05-08 06:04 60.83007 -74.60556 35632 ft 482 kts 268°
2026-05-08 06:05 60.82847 -74.74212 35633 ft 482 kts 267°
2026-05-08 06:05 60.82673 -74.87884 35637 ft 483 kts 267°
2026-05-08 06:06 60.82484 -75.01571 35632 ft 483 kts 267°
2026-05-08 06:06 60.82279 -75.15466 35628 ft 484 kts 267°
2026-05-08 06:07 60.82062 -75.29179 35633 ft 484 kts 267°
2026-05-08 06:07 60.81831 -75.42944 35632 ft 484 kts 267°
2026-05-08 06:08 60.81587 -75.56624 35637 ft 484 kts 267°
2026-05-08 06:08 60.81328 -75.70364 35634 ft 483 kts 266°
2026-05-08 06:09 60.81056 -75.84027 35636 ft 482 kts 266°
2026-05-08 06:09 60.80770 -75.97680 35634 ft 483 kts 266°
2026-05-08 06:10 60.80472 -76.11312 35631 ft 484 kts 266°
2026-05-08 06:10 60.80156 -76.25066 35632 ft 484 kts 266°
2026-05-08 06:11 60.79830 -76.38678 35636 ft 484 kts 266°
2026-05-08 06:11 60.79488 -76.52376 35632 ft 483 kts 266°
2026-05-08 06:12 60.79133 -76.66026 35635 ft 483 kts 266°
2026-05-08 06:12 60.78764 -76.79674 35629 ft 483 kts 265°
2026-05-08 06:13 60.78380 -76.93348 35617 ft 484 kts 265°
2026-05-08 06:13 60.77980 -77.07083 35610 ft 483 kts 265°
2026-05-08 06:14 60.77567 -77.20824 35613 ft 484 kts 265°
2026-05-08 06:14 60.77141 -77.34502 35618 ft 483 kts 265°
2026-05-08 06:15 60.76701 -77.48178 35622 ft 483 kts 266°
2026-05-08 06:15 60.76250 -77.61768 35612 ft 484 kts 266°
2026-05-08 06:16 60.75781 -77.75471 35616 ft 485 kts 265°
2026-05-08 06:16 60.75297 -77.89207 35613 ft 485 kts 265°
2026-05-08 06:17 60.74551 -78.09644 35611 ft 484 kts 265°
2026-05-08 06:17 60.74035 -78.23289 35607 ft 483 kts 265°
2026-05-08 06:18 60.73503 -78.36987 35598 ft 484 kts 265°
2026-05-08 06:18 60.72960 -78.50613 35588 ft 484 kts 265°
2026-05-08 06:19 60.72403 -78.64230 35588 ft 484 kts 265°
2026-05-08 06:19 60.71833 -78.77831 35586 ft 484 kts 264°
2026-05-08 06:20 60.71243 -78.91550 35579 ft 485 kts 264°
2026-05-08 06:20 60.70647 -79.05106 35576 ft 484 kts 264°
2026-05-08 06:21 60.70032 -79.18766 35575 ft 485 kts 264°
2026-05-08 06:21 60.69405 -79.32375 35573 ft 484 kts 264°
2026-05-08 06:22 60.68766 -79.45963 35575 ft 484 kts 264°
2026-05-08 06:22 60.68111 -79.59560 35569 ft 484 kts 264°
2026-05-08 06:23 60.67443 -79.73161 35566 ft 483 kts 263°
2026-05-08 06:23 60.66762 -79.86725 35564 ft 483 kts 263°
2026-05-08 06:24 60.65836 -80.00221 35557 ft 482 kts 257°
2026-05-08 06:24 60.64324 -80.13514 35549 ft 483 kts 256°
2026-05-08 06:25 60.62745 -80.26764 35544 ft 483 kts 256°
2026-05-08 06:25 60.61137 -80.39926 35534 ft 483 kts 256°
2026-05-08 06:26 60.59502 -80.53086 35531 ft 483 kts 255°
2026-05-08 06:26 60.57840 -80.66294 35526 ft 484 kts 255°
2026-05-08 06:27 60.56165 -80.79460 35521 ft 484 kts 255°
2026-05-08 06:27 60.54469 -80.92660 35525 ft 484 kts 255°
2026-05-08 06:28 60.52761 -81.05821 35521 ft 484 kts 255°
2026-05-08 06:28 60.51048 -81.18914 35527 ft 484 kts 255°
2026-05-08 06:29 60.49310 -81.32079 35527 ft 485 kts 255°
2026-05-08 06:29 60.47565 -81.45186 35529 ft 484 kts 255°
2026-05-08 06:30 60.45799 -81.58334 35523 ft 485 kts 255°
2026-05-08 06:30 60.44031 -81.71388 35515 ft 485 kts 254°
2026-05-08 06:31 60.42249 -81.84443 35507 ft 484 kts 254°
2026-05-08 06:31 60.40447 -81.97537 35504 ft 485 kts 254°
2026-05-08 06:32 60.38636 -82.10581 35502 ft 485 kts 254°
2026-05-08 06:32 60.36803 -82.23675 35502 ft 484 kts 254°
2026-05-08 06:33 60.34961 -82.36736 35496 ft 485 kts 254°
2026-05-08 06:33 60.33116 -82.49705 35498 ft 484 kts 254°
2026-05-08 06:34 60.31258 -82.62668 35495 ft 485 kts 254°
2026-05-08 06:34 60.29382 -82.75655 35487 ft 485 kts 253°
2026-05-08 06:35 60.27493 -82.88622 35481 ft 485 kts 253°
2026-05-08 06:35 60.25581 -83.01653 35483 ft 485 kts 253°
2026-05-08 06:36 60.23672 -83.14554 35486 ft 485 kts 253°
2026-05-08 06:36 60.21735 -83.27552 35482 ft 486 kts 253°
2026-05-08 06:37 60.19797 -83.40447 35479 ft 485 kts 253°
2026-05-08 06:37 60.17846 -83.53336 35475 ft 485 kts 253°
2026-05-08 06:38 60.15879 -83.66231 35474 ft 485 kts 252°
2026-05-08 06:38 60.13902 -83.79102 35474 ft 484 kts 252°
2026-05-08 06:39 60.11912 -83.91951 35465 ft 485 kts 252°
2026-05-08 06:39 60.09913 -84.04763 35454 ft 486 kts 252°
2026-05-08 06:40 60.07900 -84.17575 35449 ft 485 kts 252°
2026-05-08 06:40 60.05870 -84.30396 35446 ft 485 kts 252°
2026-05-08 06:41 60.03825 -84.43223 35439 ft 485 kts 253°
2026-05-08 06:41 60.01781 -84.55947 35455 ft 486 kts 252°
2026-05-08 06:42 59.99707 -84.68766 35450 ft 486 kts 252°
2026-05-08 06:42 59.97621 -84.81563 35449 ft 486 kts 252°
2026-05-08 06:43 59.95531 -84.94292 35451 ft 486 kts 252°
2026-05-08 06:43 59.93431 -85.07001 35454 ft 487 kts 252°
2026-05-08 06:44 59.91304 -85.19774 35448 ft 486 kts 252°
2026-05-08 06:44 59.89166 -85.32526 35435 ft 486 kts 252°
2026-05-08 06:45 59.87029 -85.45178 35431 ft 486 kts 252°
2026-05-08 06:45 59.84869 -85.57886 35436 ft 487 kts 252°
2026-05-08 06:46 59.82702 -85.70539 35432 ft 488 kts 251°
2026-05-08 06:46 59.80517 -85.83213 35434 ft 487 kts 251°
2026-05-08 06:47 59.78314 -85.95908 35429 ft 487 kts 251°
2026-05-08 06:47 59.76109 -86.08522 35433 ft 487 kts 251°
2026-05-08 06:48 59.73889 -86.21137 35434 ft 487 kts 251°
2026-05-08 06:48 59.71648 -86.33790 35431 ft 487 kts 251°
2026-05-08 06:49 59.69407 -86.46351 35430 ft 487 kts 251°
2026-05-08 06:49 59.67146 -86.58940 35427 ft 487 kts 251°
2026-05-08 06:50 59.64880 -86.71478 35429 ft 488 kts 251°
2026-05-08 06:50 59.62595 -86.84038 35428 ft 487 kts 251°
2026-05-08 06:51 59.60294 -86.96600 35428 ft 488 kts 251°
2026-05-08 06:51 59.57993 -87.09079 35434 ft 488 kts 251°
2026-05-08 06:52 59.55666 -87.21618 35439 ft 487 kts 251°
2026-05-08 06:52 59.53344 -87.34052 35442 ft 488 kts 251°
2026-05-08 06:53 59.51000 -87.46519 35444 ft 487 kts 251°
2026-05-08 06:53 59.48643 -87.58977 35449 ft 488 kts 251°
2026-05-08 06:54 59.46277 -87.71402 35450 ft 488 kts 250°
2026-05-08 06:54 59.43899 -87.83807 35448 ft 488 kts 250°
2026-05-08 06:55 59.41495 -87.96272 35448 ft 488 kts 250°
2026-05-08 06:55 59.39096 -88.08633 35447 ft 488 kts 250°
2026-05-08 06:56 59.36674 -88.21035 35449 ft 488 kts 250°
2026-05-08 06:56 59.34255 -88.33346 35453 ft 488 kts 250°
2026-05-08 06:57 59.31819 -88.45660 35454 ft 488 kts 250°
2026-05-08 06:57 59.29363 -88.58004 35455 ft 488 kts 250°
2026-05-08 06:58 59.26907 -88.70270 35461 ft 488 kts 249°
2026-05-08 06:58 59.24427 -88.82579 35462 ft 488 kts 250°
2026-05-08 06:59 59.21946 -88.94821 35468 ft 488 kts 250°
2026-05-08 06:59 59.19439 -89.07118 35469 ft 488 kts 250°
2026-05-08 07:00 59.16927 -89.19361 35468 ft 488 kts 250°
2026-05-08 07:00 59.14411 -89.31549 35474 ft 488 kts 250°
2026-05-08 07:01 59.11872 -89.43774 35474 ft 489 kts 250°
2026-05-08 07:01 59.09335 -89.55920 35485 ft 489 kts 250°
2026-05-08 07:02 59.06771 -89.68122 35483 ft 490 kts 249°
2026-05-08 07:02 59.04197 -89.80296 35484 ft 489 kts 249°
2026-05-08 07:03 59.01604 -89.92489 35488 ft 489 kts 249°
2026-05-08 07:03 58.99082 -90.04671 35487 ft 488 kts 254°